Weather History for KMFE - February, 2014

Change the Weather History Date:

Sunday, February 23, 2014

  Actual Average Record
Temperature  
Mean Temperature 75 °F 66 °F  
Max Temperature 82 °F 77 °F 93 °F (1975)
Min Temperature 68 °F 56 °F 34 °F (1901)
Degree Days  
Heating Degree Days 0 3  
Month to date heating degree days 157 94  
Since 1 July heating degree days 758 521  
Cooling Degree Days 10 4  
Month to date cooling degree days 89 74  
Year to date cooling degree days 105 136  
Growing Degree Days 25 (Base 50)    
Moisture  
Dew Point 67 °F    
Average Humidity 78    
Maximum Humidity 97    
Minimum Humidity 58    
Precipitation  
Precipitation 0.00 in 0.03 in 0.51 in (1970)
Month to date precipitation 0.04 0.94  
Year to date precipitation 0.70 1.99  
Sea Level Pressure  
Sea Level Pressure 29.91 in    
Wind  
Wind Speed 6 mph (SE)    
Max Wind Speed 14 mph    
Max Gust Speed 17 mph    
Visibility 9 miles    
Events      
T = Trace of Precipitation, MM = Missing Value Source: NWS Daily Summary

Daily Weather History Graph

Daily Weather History Graph

Search for Another Location

Airport or City:

Trip Planner

Search our weather history database for the weather conditions in past years. The results will help you decide how hot, cold, wet, or windy it might be!

Date:

Astronomy

Feb. 23, 2014 Rise Set
Actual Time 7:01 AM CST 6:31 PM CST
Civil Twilight 6:38 AM CST 6:54 PM CST
Nautical Twilight 6:11 AM CST 7:21 PM CST
Astronomical Twilight 5:44 AM CST 7:48 PM CST
Moon 1:45 AM CST (2/23) 12:51 PM CST (2/23)
Length of Visible Light 12h 15m
Length of Day
11h 29m
Last Quarter, 38% of the Moon is Illuminated
Feb 23
Last Quarter
Mar 1
New
Mar 8
First Quarter
Mar 16
Full
Mar 23
Last Quarter

Hourly Weather History & Observations

Time (CST) Temp. Heat Index Dew Point Humidity Pressure Visibility Wind Dir Wind Speed Gust Speed Precip Events Conditions
12:53 AM 71.1 °F - 68.0 °F 90% 29.88 in 10.0 mi SSE 6.9 mph - N/A   Overcast
1:53 AM 70.0 °F - 68.0 °F 93% 29.88 in 8.0 mi SSE 5.8 mph - N/A   Mostly Cloudy
2:53 AM 71.1 °F - 68.0 °F 90% 29.86 in 9.0 mi SSE 8.1 mph - N/A   Overcast
3:53 AM 71.1 °F - 68.0 °F 90% 29.86 in 10.0 mi SSE 9.2 mph - N/A   Overcast
4:04 AM 71.6 °F - 68.0 °F 88% 29.86 in 9.0 mi SSE 6.9 mph - N/A   Overcast
4:32 AM 71.6 °F - 68.0 °F 88% 29.86 in 8.0 mi SSE 8.1 mph - N/A   Overcast
4:53 AM 70.0 °F - 68.0 °F 93% 29.86 in 7.0 mi SE 5.8 mph - N/A   Overcast
5:38 AM 69.8 °F - 66.2 °F 88% 29.87 in 7.0 mi SE 5.8 mph - N/A   Scattered Clouds
5:53 AM 69.1 °F - 66.9 °F 93% 29.88 in 7.0 mi SE 3.5 mph - N/A   Partly Cloudy
6:15 AM 68.0 °F - 66.2 °F 94% 29.88 in 6.0 mi SE 5.8 mph - N/A   Mostly Cloudy
6:53 AM 69.1 °F - 68.0 °F 96% 29.90 in 7.0 mi SE 5.8 mph - N/A   Mostly Cloudy
7:53 AM 70.0 °F - 68.0 °F 93% 29.92 in 6.0 mi SSE 4.6 mph - N/A   Overcast
8:53 AM 72.0 °F - 68.0 °F 87% 29.94 in 8.0 mi South 8.1 mph - N/A   Overcast
9:35 AM 73.4 °F - 68.0 °F 83% 29.96 in 10.0 mi SSE 9.2 mph - N/A   Scattered Clouds
9:53 AM 75.9 °F - 68.0 °F 76% 29.95 in 10.0 mi SSE 10.4 mph - N/A   Scattered Clouds
10:06 AM 75.2 °F - 68.0 °F 78% 29.96 in 10.0 mi South 10.4 mph - N/A   Mostly Cloudy
10:53 AM 75.0 °F - 66.9 °F 76% 29.97 in 10.0 mi South 8.1 mph - N/A   Overcast
11:29 AM 77.0 °F - 66.2 °F 69% 29.96 in 10.0 mi SSE 11.5 mph - N/A   Overcast
11:50 AM 77.0 °F - 66.2 °F 69% 29.96 in 10.0 mi South 8.1 mph - N/A   Overcast
11:53 AM 77.0 °F - 66.9 °F 71% 29.95 in 10.0 mi South 5.8 mph - N/A   Overcast
12:00 PM 78.8 °F - 66.2 °F 65% 29.95 in 10.0 mi SSE 6.9 mph - N/A   Overcast
12:07 PM 77.0 °F - 66.2 °F 69% 29.95 in 10.0 mi SSE 9.2 mph - N/A   Overcast
12:35 PM 78.8 °F - 66.2 °F 65% 29.94 in 10.0 mi SSE 8.1 mph - N/A   Overcast
12:53 PM 78.1 °F - 66.9 °F 68% 29.94 in 10.0 mi SSE 8.1 mph - N/A   Overcast
1:53 PM 78.1 °F - 66.9 °F 68% 29.91 in 10.0 mi ESE 8.1 mph - N/A   Overcast
2:53 PM 80.1 °F 82.3 °F 66.9 °F 64% 29.88 in 10.0 mi SE 4.6 mph - N/A   Overcast
3:53 PM 82.0 °F 84.1 °F 66.0 °F 58% 29.87 in 10.0 mi South 3.5 mph - N/A   Scattered Clouds
4:53 PM 81.0 °F 83.0 °F 66.0 °F 60% 29.88 in 10.0 mi East 3.5 mph - N/A   Mostly Cloudy
5:53 PM 80.1 °F 81.9 °F 64.9 °F 60% 29.88 in 10.0 mi ESE 9.2 mph - N/A   Mostly Cloudy
6:53 PM 77.0 °F - 64.9 °F 66% 29.90 in 10.0 mi East 5.8 mph - N/A   Clear
7:53 PM 75.0 °F - 66.9 °F 76% 29.92 in 10.0 mi East 5.8 mph - N/A   Clear
8:53 PM 73.9 °F - 66.9 °F 79% 29.95 in 10.0 mi East 4.6 mph - N/A   Partly Cloudy
9:53 PM 73.9 °F - 69.1 °F 85% 29.97 in 10.0 mi East 5.8 mph - N/A   Overcast
10:53 PM 72.0 °F - 69.1 °F 91% 29.96 in 10.0 mi East 5.8 mph - N/A   Overcast
11:53 PM 72.0 °F - 69.1 °F 91% 29.96 in 10.0 mi East 3.5 mph - N/A   Overcast